Location: Eitze
(52.9840°N, 9.6894°E)
Time: 00:57:29
(UTC+00:00)

Cosmos 1570 Rocket - Pass Details

Date: 19 May 2025
Orbit: 759 x 785 km, 74.1° (Epoch: 22 June)

Event Time Altitude Azimuth Distance (km) Brightness Sun altitude
Rises 21:20:26 0° 210° (SSW) 3,220 6.9 -12.7°
Reaches altitude 10° 21:22:48 10° 212° (SSW) 2,301 6.2 -12.9°
Maximum altitude 21:28:01 73° 298° (WNW) 809 4.2 -13.3°
Drops below altitude 10° 21:33:20 10° 23° (NNE) 2,334 7.1 -13.6°
Sets 21:35:44 0° 26° (NNE) 3,270 7.9 -13.8°
